Regional Weather Roundup
Issued by NWS

Home | Current Version | Previous Version | Text Only | Print | Product List | Glossary Off
Versions: 1 2 3 4 5 6 7 8 9 10 11 12 13 14 15 16 17 18 19 20 21 22 23 24 25 26 27 28 29 30 31 32 33 34 35 36 37 38 39 40 41 42 43 44 45 46 47 48 49 50

000
ASUS43 KMPX 150010
RWRMN
WEATHER ROUNDUP FOR MINNESOTA
NATIONAL WEATHER SERVICE TWIN CITIES/CHANHASSEN MN
600 PM CST THU DEC 14 2017


NOTE: "FAIR" INDICATES FEW OR NO CLOUDS BELOW 12,000 FEET WITH NO
SIGNIFICANT WEATHER AND/OR OBSTRUCTIONS TO VISIBILITY. N/A MEANS
CURRENT SKY AND/OR WEATHER CONDITIONS ARE NOT AVAILABLE.

MNZ060>063-068>070-150100-
   Twin Cities Metro

CITY           SKY/WX    TMP DP  RH WIND       PRES   REMARKS
TWIN CITIES    FLURRIES  22  17  81 NW12      30.03S WCI  10
6HR MIN TEMP:  21; 6HR MAX TEMP:  23; 6HR PCP: TRACE;

ST PAUL        CLOUDY    22  15  75 NW12      30.04S WCI  10
CRYSTAL        CLOUDY    22  14  71 W7        30.02S WCI  13
BLAINE         FLURRIES  23  16  74 NW7       30.01F WCI  15
LAKEVILLE      CLOUDY    19  18  93 NW9       30.03R WCI   9
EDEN PRAIRIE   CLOUDY    23  15  71 NW8       30.02S WCI  14
6HR MIN TEMP:  20; 6HR MAX TEMP:  23;

SOUTH ST PAUL  FLURRIES  23  16  72 NW14      30.03S WCI  11
LAKE ELMO      CLOUDY    23  16  74 NW13G18   30.02S WCI  11
$$
MNZ001>005-007-008-013>017-022>024-027-028-150100-
   Northwest Minnesota

CITY           SKY/WX    TMP DP  RH WIND       PRES   REMARKS
BEMIDJI        FLURRIES  13   9  85 NW9       29.98S WCI   1
HALLOCK        FLURRIES  18  16  93 CALM      30.03F
ROSEAU         FLURRIES  16  10  79 W6        29.99F WCI   7
WARROAD        FLURRIES  12   9  85 W5        29.99S WCI   4
THIEF RVR FALL FLURRIES  14  11  87 NW6       30.03F WCI   5
CROOKSTON      LGT SNOW  18  16  93 CALM      30.06F
FOSSTON        LGT SNOW  12  10  92 NW7       30.02S WCI   2
DETROIT LAKES  FLURRIES  19  18  93 NW10      30.02F WCI   8
MOORHEAD       LGT SNOW  21  18  86 CALM      30.06F
PARK RAPIDS    CLOUDY    16  12  84 NW15      29.97F WCI   1
MAHNOMEN       FLURRIES  16  12  86 N6        30.02F WCI   7
$$
MNZ006-009>011-018-025>026-150100-
   North Central Minnesota

CITY           SKY/WX    TMP DP  RH WIND       PRES   REMARKS
BAUDETTE       FLURRIES  12   8  84 NW12      29.96S WCI  -2
FLAG ISLAND    CLOUDY    10   7  85 NW12      29.96F WCI  -4
INTL FALLS     LGT SNOW  12   6  77 W7        29.93F WCI   1
6HR MIN TEMP:  11; 6HR MAX TEMP:  15; 6HR PCP: TRACE;

WASKISH        FLURRIES  12   9  85 W12       29.97F WCI  -2
BIG FORK       FLURRIES  12   7  79 W5        29.94S WCI   4
LONGVILLE      FLURRIES  16  10  79 NW10G17   29.97S WCI   3
GRAND RAPIDS   FLURRIES  15   8  73 NW12      29.96S WCI   2
CRANE LAKE     LGT SNOW  12   9  85 W3        29.94S
ORR            FLURRIES  12   7  79 W9        29.90S WCI   0
COOK           FLURRIES  12   7  79 W9        29.92F WCI   0
WALKER         FLURRIES  15  11  84 W9        29.97F WCI   3
$$
MNZ012-019>021-037-150100-
   Northeast Minnesota

CITY           SKY/WX    TMP DP  RH WIND       PRES   REMARKS
DULUTH         LGT SNOW  15  12  88 W10       29.91S FOG     WCI   2
6HR MIN TEMP:  15; 6HR MAX TEMP:  17; 6HR PCP: TRACE;

ELY            FLURRIES  12   9  85 W6        29.89F WCI   3
HIBBING        CLOUDY    13   7  77 NW9       29.93S WCI   1
EVELETH        MOCLDY    13   5  69 W9        29.93S WCI   1
DULUTH HARBOR  CLOUDY    19  16  86 SW7       29.98F WCI  10
TWO HARBORS    CLOUDY    19  12  73 W6        29.90F WCI  11
SILVER BAY     FLURRIES  18  12  79 W3        29.89F
GRAND MARAIS     N/A     19  12  74 W3        29.92F
G MARAIS ARPRT FLURRIES  12   7  79 CALM      29.83F
$$
MNZ029>031-032-039>041-046>048-054>057-064-150100-
   West Central Minnesota

CITY           SKY/WX    TMP DP  RH WIND       PRES   REMARKS
FERGUS FALLS   FLURRIES  21  18  86 NW9       30.08F WCI  11
WHEATON        CLOUDY    25  18  74 NW3       30.09F
MORRIS         CLOUDY    25  19  80 NW12      30.06S WCI  14
ALEXANDRIA     CLOUDY    21  16  81 NW21G31   30.03R WCI   5
ELBOW LAKE     FLURRIES  21  19  92 NW7       30.05F WCI  12
WADENA         MIX PCPN  18  12  79 NW13      30.00F WCI   4
GLENWOOD       CLEAR     21  19  93 NW20G26   30.03S WCI   6
APPLETON       CLOUDY    27  21  80 NW9       30.08S WCI  17
BENSON         CLOUDY    25  19  80 N14       30.08R WCI  13
ORTONVILLE     CLOUDY    27  21  80 NW9       30.08S WCI  17
MADISON        CLOUDY    28  25  86 NW8       30.09S WCI  20
WILLMAR        CLOUDY    25  19  80 NW13      30.06F WCI  13
$$
MNZ033>034-036-042>043-049>051-058-059-150100-
   Central Minnesota

CITY           SKY/WX    TMP DP  RH WIND       PRES   REMARKS
ST CLOUD       CLOUDY    21  15  78 NW15      30.01S WCI   8
6HR MIN TEMP:  20; 6HR MAX TEMP:  22; 6HR PCP: TRACE;

SAUK CENTRE    CLOUDY    21  17  85 NW14      30.02S WCI   8
PAYNESVILLE    CLOUDY    23  19  83 W13G20    30.04S WCI  11
AITKIN         CLOUDY    18  10  73 W7        29.96S WCI   8
PINE RIVER     FLURRIES  16  10  79 NW8       30.01S WCI   5
BRAINERD       CLOUDY    20  12  71 NW14      29.99R WCI   7
STAPLES        CLOUDY    18  12  79 NW12G18   30.01S WCI   5
LONG PRAIRIE   CLOUDY    21  16  79 W16G22    30.02R WCI   7
LITTLE FALLS   FLURRIES  21  10  63 NW12G20   30.01S WCI   9
LITCHFIELD     CLOUDY    25  19  80 NW8       30.04S WCI  16
BUFFALO        CLOUDY    23  17  78 W7        30.03S WCI  14
MAPLE LAKE     CLOUDY    24  19  81 NW8       30.03S WCI  15
HUTCHINSON     CLOUDY    26  20  80 W10       30.04S WCI  15
$$
MNZ037-044-045-052-053-150100-
   East Central Minnesota

CITY           SKY/WX    TMP DP  RH WIND       PRES   REMARKS
PRINCETON      FLURRIES  21  16  79 W7        30.00S WCI  13
MORA           FLURRIES  19  14  79 W3        30.00F
CAMBRIDGE      FLURRIES  21  12  68 CALM      30.00F
RUSH CITY      FLURRIES  19  15  82 W3        30.00F
MOOSE LAKE     CLOUDY    19  12  73 W6        29.95F WCI  11
HINCKLEY       FLURRIES  19  16  86 W5        29.98F WCI  13
CLOQUET        FLURRIES  16  12  86 W6        29.93S WCI   7
MCGREGOR       CLOUDY    19  12  73 NW8       29.96F WCI   9
$$
MNZ071>073-080-081-089-090-097-098-150100-
   Southwest Minnesota

CITY           SKY/WX    TMP DP  RH WIND       PRES   REMARKS
MONTEVIDEO     CLOUDY    25  19  80 NW8       30.08S WCI  16
GRANITE FALLS  CLOUDY    28  21  77 NW14G22   30.10R WCI  16
CANBY          CLOUDY    28  26  91 W7        30.11R WCI  20
MARSHALL       CLOUDY    25  23  93 NW12      30.09R WCI  14
REDWOOD FALLS  CLOUDY    27  21  78 NW16G24   30.06S WCI  15
OLIVIA         CLOUDY    27  21  80 NW15      30.06R WCI  15
PIPESTONE      CLOUDY    27  25  93 CALM      30.05F
WINDOM           N/A     27  14  59 NW10      30.05S HAZE    WCI  17
WORTHINGTON    CLOUDY    26  24  92 N13       30.06R WCI  15
JACKSON        CLOUDY    28  21  74 MISG      30.05R
SLAYTON        CLOUDY    25  24  94 NW9       30.06S WCI  16
$$
MNZ065>067-074>077-082>085-091>093-150100-
   South Central Minnesota

CITY           SKY/WX    TMP DP  RH WIND       PRES   REMARKS
MANKATO        CLOUDY    25  19  80 NW8       30.05R WCI  16
NEW ULM        CLOUDY    25  18  74 W8        30.05S WCI  16
ST JAMES       CLOUDY    27  21  80 W12       30.07R WCI  16
FAIRMONT       CLOUDY    27  20  75 NW12      30.06R WCI  17
GLENCOE        CLOUDY    25  20  80 W6        30.02F WCI  18
FARIBAULT      CLOUDY    21  18  86 W8        30.04R WCI  12
OWATONNA       MIX PCPN  23  19  86 W10       30.02S WCI  12
WASECA         CLOUDY    23  19  86 W9        30.05R WCI  13
ALBERT LEA     CLOUDY    25  19  80 W6        30.02S WCI  18
$$
MNZ078>079-086>088-094>096-150100-
   Southeast Minnesota

CITY           SKY/WX    TMP DP  RH WIND       PRES   REMARKS
ROCHESTER      CLOUDY    21  18  88 W14       29.99S WCI   8
6HR MIN TEMP:  21; 6HR MAX TEMP:  23;

RED WING       CLOUDY    23  16  74 NW5       30.02S WCI  17
STANTON        CLOUDY    24  19  81 NW12      30.02S WCI  12
DODGE CENTER   CLOUDY    21  18  86 W12G18    30.00R WCI   9
WINONA           N/A     27  19  74 W5        30.03R WCI  21
PRESTON        CLOUDY    22  17  80 W9        30.00S WCI  12
$$
ABBREVIATIONS USED IN REMARKS
   TC - TEMPERATURES IN CELSIUS
  WCI - WIND CHILL INDEX
   HX - HEAT INDEX
  VSB - VISIBILITY
$$




USA.gov is the U.S. government's official web portal to all federal, state and local government web resources and services.